THEMIS A 1 30580U 07004A 21014.28900773 -.00000499 00000-0 15925-1 0 9997 2 30580 16.1722 29.4901 8399972 69.5370 356.2132 0.87834868 48566 THEMIS D 1 30797U 07004D 21015.40439718 -.00000532 00000-0 00000-0 0 9993 2 30797 13.7674 13.3100 8372092 87.5611 353.9442 0.87837028 23685 THEMIS E 1 30798U 07004E 21015.46322935 -.00000537 00000-0 00000-0 0 9997 2 30798 13.2948 24.8075 8365270 78.9253 355.0207 0.87841213 48522